Weather in Skovde

Sweden     58°23′32″N   13°51′08″E
temp.,
°C
wind,
m/s
gust,
m/s
humid.,
%
clouds,
%
prec.,
mm/h
press.,
hPa
HPBL,
m
15 april, thu
thu1523:00+1nw116124 0.0 103110
02:000n017019 0.0 103110
05:00−1n118076 0.0 103210
08:00+3nne236663 0.0 1033193
11:00+8ne354994 0.0 10331725
14:00+10ne354095 0.0 10322077
17:00+9ne3541100 0.0 10321927
20:00+5nne226591 0.0 103223
16 april, fri
fri1623:00+2ene227464 0.0 103317
02:00+1ne228173 0.0 103317
05:00−1ne237372 0.0 103249
08:00+3ne276560 0.0 1032290
11:00+8ne46445 0.0 10321166
14:00+11ne46365 0.0 10301632
17:00+11ene46395 0.0 10301734
20:00+7ne395720 0.0 1030289
17 april, sat
sat1723:00+3ene227198 0.0 103236
02:00+4ne2963100 0.0 1031319
05:00+4ne3106997 0.0 1031390
08:00+5ne3116590 0.0 1031484
11:00+9ene474658 0.0 1030881
14:00+12ene464483 0.0 10291233
17:00+12ene4647100 0.0 10281265
20:00+9ene376586 0.0 1028220
18 april, sun
sun1823:00+6ene287789 0.0 1029279
02:00+4ene2871100 0.0 1029275
05:00+2ene26837 0.0 1028158
08:00+5e377330 0.0 1028309
11:00+8e477086 0.0 1027411
14:00+12ese4662100 0.0 1026798
17:00+12e4666100 0.0 1025920
20:00+8e3986100 0.1 1026487
19 april, mon
mon1923:00+8e3988100 0.0 1026402
02:00+6e2798100 0.0 1026202
05:00+6e2796100 0.0 1025248
08:00+7e2594100 0.0 1024295
11:00+8e2493100 0.7 1024270
14:00+11e3580100 0.9 1023654
17:00+12ese4877100 0.7 1021857
20:00+10ese4118520 1.3 1020538